TimeCST,TemperatureF,Dew PointF,Humidity,Sea Level PressureIn,VisibilityMPH,Wind Direction,Wind SpeedMPH,Gust SpeedMPH,PrecipitationIn,Events,Conditions,WindDirDegrees,DateUTC
12:52 AM,46.9,35.1,63,29.88,10.0,NNE,15.0,24.2,N/A,,Clear,20,2011-11-16 06:52:00
1:52 AM,46.0,32.0,58,29.90,10.0,NNE,15.0,-,N/A,,Clear,20,2011-11-16 07:52:00
2:52 AM,44.1,30.0,58,29.91,10.0,NNE,16.1,-,N/A,,Clear,20,2011-11-16 08:52:00
3:52 AM,43.0,28.9,58,29.93,10.0,NNE,13.8,-,N/A,,Clear,20,2011-11-16 09:52:00
4:52 AM,41.0,28.9,62,29.94,10.0,NNE,15.0,-,N/A,,Clear,30,2011-11-16 10:52:00
5:52 AM,39.9,28.0,63,29.98,10.0,NNE,12.7,-,N/A,,Clear,20,2011-11-16 11:52:00
6:52 AM,37.9,27.0,65,30.02,10.0,NNE,11.5,-,N/A,,Clear,20,2011-11-16 12:52:00
7:52 AM,39.9,19.9,45,30.06,10.0,NNE,20.7,26.5,N/A,,Clear,30,2011-11-16 13:52:00
8:52 AM,41.0,19.0,41,30.10,10.0,NE,18.4,24.2,N/A,,Clear,40,2011-11-16 14:52:00
9:52 AM,44.6,17.6,34,30.10,10.0,NE,18.4,28.8,N/A,,Clear,40,2011-11-16 15:52:00
10:52 AM,46.0,17.1,31,30.13,10.0,North,18.4,-,N/A,,Clear,10,2011-11-16 16:52:00
11:52 AM,46.9,18.0,32,30.14,10.0,NNE,17.3,26.5,N/A,,Clear,20,2011-11-16 17:52:00
12:52 PM,46.0,19.0,34,30.14,10.0,North,19.6,-,N/A,,Clear,350,2011-11-16 18:52:00
1:52 PM,44.1,17.1,34,30.16,6.0,North,13.8,-,N/A,,Haze,10,2011-11-16 19:52:00
2:52 PM,42.1,15.1,34,30.17,8.0,North,19.6,23.0,N/A,,Overcast,360,2011-11-16 20:52:00
3:52 PM,41.0,16.0,36,30.20,10.0,North,15.0,-,N/A,,Overcast,10,2011-11-16 21:52:00
4:52 PM,37.0,28.9,73,30.24,9.0,North,16.1,23.0,0.00,Snow,Light Snow,350,2011-11-16 22:52:00
5:05 PM,35.6,30.2,81,30.22,9.0,North,11.5,-,0.00,Rain,Light Freezing Rain,350,2011-11-16 23:05:00
5:15 PM,35.6,30.2,81,30.23,7.0,North,12.7,-,0.01,Snow,Light Snow,350,2011-11-16 23:15:00
5:33 PM,35.6,30.2,81,30.23,10.0,North,9.2,-,0.01,Rain,Light Freezing Rain,10,2011-11-16 23:33:00
5:52 PM,37.4,30.2,75,30.24,10.0,North,6.9,-,N/A,,Overcast,10,2011-11-16 23:52:00
6:52 PM,37.9,30.9,76,30.29,10.0,Calm,Calm,-,N/A,,Overcast,0,2011-11-17 00:52:00
7:52 PM,37.0,30.9,79,30.29,10.0,Calm,Calm,-,N/A,,Overcast,0,2011-11-17 01:52:00
8:52 PM,35.1,30.9,85,30.30,10.0,West,3.5,-,N/A,,Clear,280,2011-11-17 02:52:00
9:52 PM,33.1,28.9,85,30.32,10.0,West,4.6,-,N/A,,Clear,280,2011-11-17 03:52:00
10:52 PM,32.0,27.0,82,30.32,10.0,WNW,4.6,-,N/A,,Clear,300,2011-11-17 04:52:00
11:52 PM,32.0,25.0,75,30.34,10.0,WNW,5.8,-,N/A,,Partly Cloudy,300,2011-11-17 05:52:00